COSMOS 1275 DEB, 12781

Orbit data source: Space-Track

COSMOS 1275 DEB, 12781 is space debris in LEO originally from a launch on Thu, 04 Jun 1981 UTC launched from the Plesetsk Missile And Space Complex (PKMTR). Debris objects in space refer to the collection of defunct objects orbiting the Earth. Examples of debris include non-operational satellites, rocket bodies, and fragments generated from explosions, collisions, or faulty payload assembly.

Loading next visibility...
Identifier
12781, 1981-053DX
Orbit
LEO
Country
Flag of CISCIS
Related business
Manufacturer
Unknown
Mission
Spacecraft
Bus & Motor
Unknown
Mass
Unknown
Launch date (UTC)
1981-06-04 (45 years ago)
Launch vehicle
Unknown
Launch site
Plesetsk Missile And Space Complex (PKMTR)
Object type
Payload
Rocket body
Debris
Shape & HBR
Unknown shape, 0.1 m
Radar Cross Section
Medium (>0.1 m² and <1 m²)

Expand to show TLE details & history
Last TLE update: 15 hours ago

TLE from 15 hours ago
0 COSMOS 1275 DEB
1 12781U 81053DX  26149.90132918  .00000311  00000-0  25396-3 0  9994
2 12781  83.1685 314.2472 0070939  66.9753  85.6445 13.85402254246401
Epoch: 2026-05-29T21:37Z
TLE epoch observation values (Epoch: 2026-05-29T21:37:54.841Z)
Latitude
26.4003°
Longitude
-81.04796°
Altitude
944.432 km
Speed
7.384 km/s
True Right ascension
08h 43m 25s
True Declination
26° 16' 01"
Sunlit
Object was in daylight at epoch
Visualization orbit readout
Latitude
Unknown
Longitude
Unknown
Altitude
Unknown
Speed
Unknown
Apparent Right ascension
Unknown
Apparent Declination
Unknown
Sunlit
N/A
Visualization observer readout
Local Sidereal Time
22:09:31
Azimuth
Unknown
Elevation
Unknown
Doppler factor
Unknown
Orbital elements
Apogee altitude
993.841 km
Perigee altitude
889.986 km
Semi-major axis
7,320.051 km
Eccentricity
0.00709
Inclination
83.1685°
RAAN
314.2472°
Arg. of periapsis
66.9753°
True anomaly
86.45557°
Mean anomaly
85.6445°
Eccentric anomaly
86.04999°
Mean motion
3.46555 °/min
Orbital period
103.88 mins
BSTAR
0.00025396
Loading maneuver chart data...
Computing Atmospheric mass density...
Loading historical data...
Loading historical data...
Loading historical data...
Loading historical data...
Loading historical data...
Loading historical data...
Loading historical data...

Documentation

Showing up to 5 results
|